RH
72 73 71 65 65 66 66 67 66 64 62 60 61 63 65 69 71 66 60 60 59 59 64 64 62 61 57 45 37 33 34 36 35 37 42 41 42 44 41 38 40 43 40 37 39 41 42 43 47 49 47 47 48 45 46 45 40 37 32 25 22 21 23 35 39 33 34 38 37 37 36 36 38 39 40 41 40 39 40 42 42 40 41 43 44
71 71 68 65 65 66 68 70 69 68 66 64 65 65 66 69 68 64 60 57 57 62 66 62 60 63 59 48 39 34 35 39 36 39 46 45 40 40 38 38 43 45 41 38 39 40 41 44 47 46 45 48 48 44 44 41 32 30 31 26 22 21 24 36 43 38 36 38 38 38 39 40 42 43 43 44 44 42 42 44 45 45 47 49 51
70 72 72 68 67 68 70 71 70 70 70 70 69 67 66 66 65 66 62 56 60 66 64 57 57 62 59 48 40 36 38 42 39 41 48 48 44 41 36 39 44 43 40 40 41 41 40 44 48 46 44 47 47 41 37 33 29 29 32 28 25 24 26 33 41 40 37 36 38 40 41 42 43 42 42 43 45 45 45 47 49 50 51 52 52
72 74 75 71 69 71 72 72 73 74 74 74 71 66 65 64 66 67 64 59 62 63 58 54 55 57 55 49 43 39 41 43 42 43 47 50 51 48 42 41 41 39 39 39 40 39 37 41 46 45 45 48 45 38 34 34 32 32 33 31 29 29 30 32 36 39 38 38 38 39 40 41 41 41 41 41 43 45 46 47 48 49 50 49 46
76 77 79 76 76 78 77 75 76 76 76 75 70 66 64 65 66 68 65 62 60 57 55 55 53 52 53 52 47 43 45 48 46 43 42 46 51 52 48 43 39 38 40 39 38 39 38 38 40 40 42 44 40 35 34 35 35 34 34 34 33 34 35 34 35 37 38 41 43 39 38 40 40 40 41 41 43 46 47 48 48 48 48 46 42
76 77 79 79 79 83 81 78 78 76 75 73 69 66 64 63 64 66 66 63 59 55 55 56 56 56 58 57 51 47 48 50 47 41 39 42 47 49 46 42 39 39 39 38 38 39 40 39 38 37 37 37 36 36 37 38 38 38 36 35 38 40 39 38 38 38 38 41 42 40 39 40 41 42 43 44 45 47 48 49 49 49 48 45 42
74 75 76 76 77 80 81 79 79 77 74 70 67 65 63 62 64 66 66 63 57 55 57 58 60 61 61 59 54 49 49 49 46 40 38 40 44 48 46 43 41 38 37 39 38 38 39 38 36 34 33 34 38 40 40 41 42 42 40 40 42 43 43 42 42 41 41 42 43 43 43 43 43 44 45 46 47 48 48 49 50 51 49 46 43
73 75 78 80 81 82 83 81 81 81 77 73 69 67 66 65 66 68 66 62 58 59 60 58 58 60 60 58 54 51 52 50 44 39 37 38 42 47 47 44 42 38 36 38 37 36 37 35 32 30 28 32 38 40 40 42 43 43 45 45 45 45 45 44 44 44 45 46 46 46 46 45 44 45 45 45 46 46 48 49 49 52 52 48 46
73 75 79 82 83 84 84 83 84 84 80 76 74 71 69 69 70 68 64 59 58 60 60 58 59 60 60 60 56 55 56 52 44 40 38 37 41 45 46 45 44 42 40 40 38 38 37 34 32 30 28 30 35 36 37 38 41 44 47 45 44 45 44 44 45 46 46 47 48 48 47 47 46 47 47 47 45 45 46 47 48 51 52 51 50
79 79 81 84 84 83 83 83 85 84 81 79 78 75 75 75 76 74 66 59 57 58 59 62 63 62 62 61 58 56 55 49 43 41 39 38 40 43 44 43 43 43 44 43 41 39 36 32 29 29 30 32 35 36 37 37 39 42 44 42 41 42 44 44 44 44 45 45 46 46 47 47 47 49 51 52 52 51 49 49 51 53 54 54 54
88 85 85 86 85 84 83 85 86 83 81 82 82 81 82 82 81 79 71 62 57 58 64 67 66 65 66 63 59 57 52 44 40 39 38 37 39 42 43 42 42 41 41 41 40 37 35 34 32 30 32 36 38 39 39 39 39 40 40 39 40 42 43 44 45 45 44 44 44 45 46 46 48 51 53 54 55 56 56 56 56 56 56 57 58
90 90 91 91 89 88 87 86 86 84 83 86 86 87 88 88 86 82 76 70 64 63 68 70 67 67 68 65 63 60 51 43 40 38 37 37 38 40 42 43 42 40 38 39 39 39 39 41 42 40 39 40 41 41 41 40 39 39 38 38 38 39 40 41 43 44 44 44 44 44 44 45 48 50 52 54 55 57 59 59 56 56 58 59 59
93 94 95 94 92 91 89 87 88 87 88 90 90 89 89 90 90 86 82 79 74 70 71 70 67 68 71 70 68 63 52 45 43 41 41 42 41 41 44 45 44 43 42 42 43 46 48 50 51 50 47 44 43 43 44 42 40 39 39 38 38 39 39 39 40 41 43 45 45 45 45 45 47 47 47 51 54 55 56 57 56 56 58 60 60
96 97 96 95 94 93 91 90 89 90 90 91 93 92 91 91 91 89 87 84 80 76 74 71 68 71 73 73 72 66 55 49 48 47 45 45 44 43 46 47 47 47 46 45 47 52 55 54 54 52 50 47 45 45 46 45 43 41 41 41 41 41 42 42 42 42 43 44 45 47 47 46 47 48 48 49 52 53 54 55 57 59 61 62 61
97 99 98 95 93 93 94 93 93 92 91 92 92 92 92 93 93 92 90 87 82 78 75 73 72 72 72 73 74 69 58 51 50 49 47 46 47 48 49 50 51 51 49 48 49 52 53 52 51 51 50 49 48 46 47 47 47 46 46 46 45 44 44 44 44 45 45 45 45 47 48 49 49 49 50 50 52 54 55 56 59 60 63 63 62
97 98 96 92 91 93 94 93 92 92 92 91 92 91 92 93 92 90 90 90 87 82 78 78 77 74 72 75 77 72 62 55 51 49 48 48 49 50 52 53 53 53 54 53 53 53 51 49 48 48 49 50 49 49 50 51 52 52 52 51 50 49 48 46 45 47 46 46 46 47 48 49 50 52 52 52 53 55 57 60 62 63 65 65 64
98 96 95 92 90 91 91 90 90 92 93 93 93 93 92 91 89 88 89 91 91 88 84 82 80 77 76 78 79 74 68 62 55 51 49 49 48 48 50 54 56 58 59 57 56 54 52 50 49 49 49 50 50 52 54 55 55 56 55 54 53 52 51 48 47 47 48 48 49 50 52 54 55 55 54 53 55 59 63 67 70 71 71 69 66
96 95 94 93 90 87 86 87 89 91 91 90 90 88 87 87 88 88 89 91 92 91 87 82 80 84 87 87 84 78 72 69 64 55 49 47 46 46 48 51 55 59 61 60 58 58 57 55 55 55 55 54 55 58 59 59 58 56 54 53 53 53 53 52 51 50 52 54 55 56 57 58 58 56 55 56 58 61 64 68 72 73 73 71 67
90 89 88 87 86 83 84 88 90 89 88 88 85 82 81 83 84 86 87 89 89 89 85 80 80 87 93 91 87 82 77 73 69 60 52 47 45 46 46 48 51 55 57 58 58 59 59 58 58 59 59 59 60 62 63 62 61 60 58 57 58 60 61 63 62 61 61 62 62 62 61 61 60 60 62 63 63 62 64 68 73 74 72 71 70
80 79 77 76 77 79 82 87 89 88 89 89 85 82 82 83 83 85 86 87 86 83 81 80 80 84 88 89 86 82 78 74 70 64 57 53 50 48 47 46 48 50 52 55 57 58 59 60 60 62 64 65 67 69 71 71 70 69 69 70 72 74 73 70 69 69 68 68 67 64 65 66 66 66 67 67 67 69 70 71 75 77 74 73 72
73 72 70 70 72 75 79 82 83 83 85 86 83 82 83 85 87 89 89 90 89 86 84 84 83 83 83 83 81 79 78 77 75 71 66 62 59 55 51 51 54 57 58 59 59 60 64 67 67 68 72 74 75 76 78 78 76 74 76 76 76 76 74 70 69 69 70 70 69 67 68 70 70 70 71 71 73 75 76 76 78 79 78 77 75
73 71 70 69 69 71 73 74 74 73 73 75 75 75 75 76 78 82 84 86 87 88 88 87 85 81 78 76 77 80 83 84 83 80 74 69 65 60 57 57 60 63 63 63 61 61 66 70 71 71 73 74 74 74 74 75 74 72 72 72 71 71 72 71 71 72 73 74 74 74 74 75 75 75 76 77 78 78 78 79 79 79 78 77 76
72 71 71 71 70 70 70 70 70 69 69 69 69 70 70 69 69 71 72 73 75 76 77 77 76 73 70 70 75 82 84 84 84 81 77 73 71 69 67 66 67 68 68 68 67 65 65 68 71 72 71 69 68 68 68 69 68 68 68 69 70 73 75 75 75 76 77 78 79 79 79 80 82 82 80 78 78 77 77 77 76 76 75 73 73
71 72 73 74 73 72 71 71 72 72 71 69 68 68 68 69 69 68 67 67 66 65 65 65 64 63 61 63 67 72 73 74 76 75 75 75 75 74 74 73 73 73 73 74 73 71 69 69 71 73 73 71 70 69 69 69 68 68 68 70 71 73 75 75 75 75 75 75 76 78 79 81 82 84 83 79 75 73 73 73 72 71 69 69 70
73 73 73 73 74 73 73 74 74 73 72 70 69 68 68 68 69 70 69 68 67 64 63 62 62 61 61 60 60 61 62 63 65 66 68 69 69 70 70 70 69 70 70 71 71 72 72 72 73 73 73 72 72 71 71 72 72 71 71 71 70 69 67 67 66 66 65 64 65 70 74 74 73 74 76 74 69 68 69 69 70 69 67 66 63
73 72 71 71 70 70 71 71 71 70 69 67 66 65 65 65 66 67 68 68 68 66 65 63 63 63 63 61 61 60 59 60 61 61 61 61 61 61 61 60 60 60 60 60 61 61 62 64 64 65 64 63 63 62 62 61 61 60 59 58 56 55 55 54 53 52 53 54 57 60 61 61 59 59 60 61 60 62 65 66 65 63 61 61 61
69 69 69 69 68 67 66 66 65 64 63 62 61 60 59 59 59 60 61 61 62 63 63 63 63 63 62 62 61 61 61 62 59 56 55 54 53 53 52 51 51 50 50 52 52 49 48 49 49 49 48 47 46 46 45 45 44 45 45 46 46 46 49 50 47 46 47 48 50 50 49 48 48 47 47 49 50 52 56 58 58 58 61 66 72
67 66 66 66 65 65 64 64 63 63 62 61 60 59 58 57 57 57 57 57 57 57 57 58 58 58 58 58 57 57 61 62 56 49 48 48 46 45 45 44 44 43 43 44 42 40 38 38 38 37 37 38 38 38 39 40 42 43 44 44 42 41 42 42 41 39 40 42 45 46 45 44 45 45 46 47 47 46 48 49 50 52 55 59 64
69 68 67 66 64 63 62 62 61 61 61 60 59 58 57 58 57 57 57 56 56 55 55 54 53 53 52 52 50 50 53 53 48 43 42 41 39 38 37 37 37 36 35 34 33 33 32 32 32 34 35 37 39 39 40 42 43 43 42 41 38 37 38 41 40 38 37 40 44 46 45 45 46 46 46 47 45 44 44 43 41 42 45 50 60
71 69 68 66 63 63 62 61 60 59 59 60 61 59 57 55 55 54 53 52 51 50 49 48 47 46 44 43 42 41 41 40 38 37 37 36 35 35 34 34 34 33 33 33 32 31 31 31 32 34 35 36 37 37 37 37 37 36 37 36 36 36 38 40 41 38 37 38 42 45 45 45 44 43 43 43 41 40 39 39 40 44 50 57 64
72 71 68 61 57 58 59 58 57 57 57 58 60 60 57 53 50 48 47 46 44 43 42 41 40 40 39 38 37 36 35 34 34 34 34 34 34 34 33 33 32 31 30 29 27 26 27 27 28 30 30 31 32 32 31 31 31 32 33 32 32 33 34 35 36 35 32 31 34 38 39 37 38 38 37 37 38 37 37 36 37 43 49 52 51
65 66 65 59 54 54 56 55 54 55 54 53 53 53 51 50 49 47 44 42 41 39 39 39 39 38 37 36 35 33 32 31 31 30 30 29 30 30 28 27 26 24 23 22 21 20 20 21 24 27 28 29 30 31 31 31 31 31 31 31 31 31 31 32 33 32 30 27 29 33 35 35 35 36 35 36 37 37 38 39 38 41 45 45 47
56 56 56 54 51 50 51 51 51 51 49 47 46 46 45 45 46 45 43 41 39 37 36 35 34 34 33 32 31 30 29 28 27 25 25 24 24 24 23 21 20 19 18 19 21 23 23 25 28 30 31 32 33 34 34 34 34 34 34 34 33 32 32 33 33 32 31 29 29 31 33 33 33 35 38 41 41 39 41 43 43 45 47 47 50
49 46 45 45 43 42 43 45 45 45 44 43 42 42 43 42 41 40 39 38 37 36 34 31 29 29 29 29 28 26 25 24 23 22 22 22 21 21 22 22 23 22 22 24 28 31 31 32 33 34 34 35 36 36 36 37 37 37 37 37 36 35 36 37 36 35 35 34 33 34 35 34 34 36 40 43 45 46 48 48 47 47 49 50 53
40 39 38 37 35 35 37 39 39 39 39 38 37 38 38 37 36 35 34 33 33 33 32 30 28 25 23 23 23 23 21 21 21 21 23 23 24 25 26 28 29 29 29 29 31 32 32 34 35 37 38 38 38 38 39 39 39 39 39 39 39 39 39 39 38 37 37 37 36 36 37 37 38 39 42 45 49 52 54 53 53 51 50 53 57
33 32 32 31 29 30 32 34 35 34 34 34 34 33 32 32 32 31 31 31 31 31 30 32 31 28 25 23 22 21 22 22 21 22 25 26 27 29 31 32 32 31 31 32 32 31 31 34 37 39 39 39 39 38 39 39 40 40 41 41 41 41 42 41 41 39 37 39 40 40 41 42 43 42 43 46 50 51 52 53 53 52 53 60 69
30 29 30 30 30 30 31 33 34 34 34 34 33 31 30 30 31 31 30 32 33 32 31 31 33 32 31 30 27 25 26 26 26 28 30 31 33 35 37 37 35 34 34 36 34 31 31 34 36 37 37 37 36 36 37 37 38 39 41 42 44 45 45 43 43 42 42 44 46 48 49 51 52 50 49 50 52 54 53 53 53 55 61 72 82
31 31 32 33 32 31 31 33 34 34 34 33 31 30 31 32 32 31 31 32 33 33 31 32 35 35 34 34 32 31 32 33 33 35 36 37 37 38 38 38 37 36 36 37 36 33 33 34 34 34 34 34 34 34 35 36 38 40 43 46 47 47 47 47 48 49 50 51 53 54 54 57 61 62 61 59 60 62 64 64 64 65 70 80 88
35 36 36 35 33 32 32 33 33 33 33 32 31 31 32 33 33 33 33 33 34 36 35 37 38 35 32 30 29 31 35 38 38 39 40 39 38 38 38 38 37 35 34 35 35 33 32 32 32 32 32 32 33 34 36 39 42 44 46 48 49 49 51 53 54 56 58 60 62 62 61 64 71 76 76 74 74 76 76 74 71 71 76 87 94
42 42 40 37 34 34 34 33 32 31 32 33 33 33 35 37 37 37 36 36 38 39 40 39 38 33 29 28 28 29 35 41 42 40 40 39 38 38 38 37 35 34 34 35 35 34 33 33 33 34 35 35 36 38 41 43 45 46 48 51 52 54 58 60 63 64 66 67 69 72 75 80 86 89 90 89 86 83 81 79 77 79 84 90 90
46 45 43 39 35 34 33 31 30 31 33 34 35 37 39 41 41 41 40 40 40 41 41 40 38 34 31 31 31 33 38 44 43 40 40 39 38 39 39 38 36 36 37 37 36 35 35 36 37 38 39 40 42 45 46 46 46 50 53 56 58 62 65 67 68 70 71 74 79 85 90 93 94 94 94 92 88 85 85 86 83 82 82 82 80
50 47 43 39 36 34 33 32 32 34 36 38 40 41 43 43 44 44 43 42 42 43 42 42 42 40 38 37 38 41 44 44 42 40 41 41 42 42 41 40 39 39 40 41 40 38 38 39 40 42 44 46 47 49 49 49 52 57 59 60 64 67 68 69 71 76 81 87 92 95 95 95 95 94 94 94 92 90 89 88 85 83 83 82 81
53 47 42 39 37 35 35 36 37 38 40 41 42 44 46 46 46 46 45 44 44 45 45 44 45 45 45 44 45 46 45 43 41 41 42 42 42 42 41 41 42 43 44 44 42 40 41 44 46 48 49 50 49 50 52 58 63 66 66 67 70 71 72 74 79 84 90 95 96 95 94 95 94 94 94 94 92 90 88 87 86 86 85 84 83
54 48 44 42 39 38 39 41 42 43 45 46 46 47 48 48 48 48 45 44 45 46 46 47 47 48 49 49 47 44 42 40 40 41 41 41 41 41 41 42 44 45 46 46 46 47 49 51 53 53 53 53 54 57 62 67 72 73 73 73 75 77 79 83 85 88 91 94 93 91 90 90 89 88 89 88 88 87 87 87 86 86 85 86 87
57 51 46 43 42 41 44 46 46 47 49 49 49 49 49 48 48 47 44 44 45 47 48 49 50 50 50 48 44 40 39 39 39 40 41 43 43 43 44 45 47 48 49 50 52 54 55 56 56 55 56 58 61 66 70 74 77 79 79 78 79 83 86 87 87 88 90 90 90 90 92 92 90 88 87 87 87 87 86 86 86 86 87 88 87
60 55 51 48 46 45 46 48 49 49 49 50 50 50 49 49 48 46 45 46 48 50 50 51 51 50 47 44 41 39 38 39 41 43 45 45 45 45 46 48 50 52 53 53 54 56 56 56 56 57 60 64 68 70 75 80 83 82 81 79 79 83 85 86 87 88 87 87 90 94 96 97 95 92 90 89 87 86 85 85 85 86 86 84 82
62 59 56 53 50 46 46 48 49 49 50 51 51 51 50 49 47 47 47 50 52 52 52 51 49 46 44 42 41 40 39 41 45 47 48 48 47 47 48 50 52 54 57 57 57 57 57 57 58 59 63 68 70 71 75 82 85 84 81 80 79 80 82 84 87 87 86 87 92 97 99 98 97 95 93 90 87 86 86 86 85 85 83 80 77
65 63 61 57 51 46 46 49 49 49 49 51 52 52 51 50 49 50 52 53 53 52 51 49 47 45 44 44 43 42 43 46 49 49 50 51 50 49 50 51 53 56 59 60 59 59 59 59 60 61 64 67 69 70 73 77 80 80 79 77 76 77 80 82 84 84 84 86 92 98 99 99 98 96 93 90 88 88 88 87 86 84 80 75 72
64 64 64 60 52 47 47 49 49 47 49 52 53 52 50 51 51 52 53 53 52 51 51 50 49 49 49 47 46 44 45 48 50 50 52 54 52 49 50 52 53 57 61 63 62 62 62 61 62 62 63 65 68 69 70 71 73 72 71 69 69 72 76 79 80 82 84 89 94 96 96 95 94 92 91 89 88 87 87 86 85 82 78 73 70
64 66 66 61 53 48 49 51 50 48 50 53 53 51 50 51 51 51 52 51 51 51 53 52 53 52 51 50 48 47 48 49 49 51 54 56 55 52 52 54 55 58 62 63 62 61 61 61 60 60 60 62 65 66 65 64 63 64 64 65 66 71 76 80 81 82 86 91 93 91 90 90 90 90 89 88 87 86 84 82 80 77 74 72 70
67 69 67 62 54 50 53 56 55 51 50 51 50 49 50 52 52 52 52 52 52 53 53 52 51 51 51 51 50 51 51 51 52 54 57 59 59 58 58 58 58 62 64 64 61 59 59 59 58 58 57 59 59 58 57 58 60 63 65 67 69 73 77 81 81 81 83 87 90 90 89 89 89 89 88 88 85 82 80 78 76 75 73 71 70